Dewpoint
67 67 66 66 66 66 67 66 66 66 66 66 66 67 67 68 68 68 68 68 68 69 69 70 70 69 69 68 68 68 66 67 67 66 66 66 66 67 66 66 67 65
67 67 66 66 66 66 66 67 67 66 66 67 66 67 68 68 68 68 69 69 69 69 70 70 70 69 68 68 68 68 67 67 67 66 67 67 67 67 68 68 67 67
68 68 68 66 66 67 67 67 67 67 67 67 68 68 68 69 69 69 69 69 69 70 70 70 69 69 69 68 68 68 67 67 67 66 66 66 67 67 67 68 68 69
68 68 68 67 67 66 67 67 67 68 68 69 68 69 69 70 70 69 69 70 69 69 70 69 69 69 69 68 68 67 67 67 66 66 66 66 67 67 67 68 67 69
66 66 67 67 67 66 67 67 66 66 68 68 69 69 69 70 69 68 69 69 69 69 69 69 69 69 69 69 68 68 68 67 66 66 66 66 66 66 66 66 67 68
65 65 66 67 67 67 67 67 66 66 67 68 69 68 69 69 69 69 69 69 68 68 69 69 69 69 69 68 68 68 68 66 66 66 65 65 65 65 66 66 67 68
64 65 67 67 67 67 67 68 67 67 68 68 68 69 69 69 68 68 68 68 67 68 68 69 69 69 69 68 68 67 67 66 66 65 64 64 64 65 65 66 67 66
65 64 65 65 67 67 67 67 68 68 68 68 69 69 69 69 68 68 68 68 67 67 67 68 67 67 68 68 67 68 67 66 66 65 64 64 65 64 65 67 67 65
64 66 66 66 67 67 68 68 68 68 68 68 68 69 68 68 67 68 67 67 66 67 67 67 67 67 68 68 68 67 65 66 66 65 65 65 65 64 64 66 66 66
64 65 66 66 67 68 68 68 68 68 67 68 67 68 68 68 68 67 67 66 66 66 66 66 66 66 67 67 67 66 65 65 65 65 65 65 64 64 64 65 65 66
65 67 66 67 67 68 68 68 67 67 67 66 67 68 68 68 68 67 67 66 67 66 65 65 66 66 66 67 67 67 65 65 64 64 65 64 64 64 66 65 65 65
67 67 66 67 66 67 68 67 68 68 67 67 66 66 67 68 68 68 67 66 66 66 65 66 66 66 65 66 66 66 66 65 65 65 65 64 64 64 64 65 65 64
66 66 66 67 66 67 67 67 67 69 68 67 67 66 66 67 67 66 67 66 66 66 65 65 65 65 65 65 65 65 65 65 65 65 65 65 65 64 64 64 65 65
66 67 67 66 67 67 68 68 68 68 68 67 67 66 66 66 66 66 67 67 66 66 65 65 65 65 65 65 65 65 65 65 65 66 65 65 66 65 65 65 65 65
66 67 68 67 67 67 67 67 67 67 66 65 66 66 67 66 66 66 66 66 66 66 65 65 66 66 67 66 66 65 65 65 65 65 65 66 65 66 65 65 65 65
65 66 66 66 67 66 66 67 66 66 66 65 65 65 66 66 66 66 65 66 65 65 66 68 67 67 65 60 60 65 65 65 65 65 66 65 66 66 65 65 65 65
64 64 64 64 65 65 66 65 65 65 65 65 65 66 66 66 66 65 66 66 64 65 66 68 68 67 57 55 56 59 65 66 65 65 65 65 65 65 65 65 65 64
63 62 63 64 64 64 64 63 64 65 65 65 65 66 66 67 67 66 66 66 66 66 67 68 68 61 50 51 52 54 60 67 66 65 66 65 64 65 65 65 65 65
62 62 62 63 64 63 63 62 62 63 64 64 64 66 66 65 66 67 66 66 67 66 67 67 68 48 50 49 50 50 53 61 65 66 65 65 65 65 64 65 65 65
62 63 63 64 64 63 62 62 62 63 63 64 65 65 65 65 66 67 67 66 66 66 66 66 66 51 49 48 49 48 50 56 65 66 66 65 64 65 65 65 65 65
62 63 63 63 63 62 62 61 62 62 63 63 64 64 65 65 67 67 67 66 66 66 65 65 65 49 48 47 47 47 48 54 65 65 65 65 65 65 65 65 65 65
60 61 62 63 63 63 62 61 62 63 63 64 64 65 65 66 67 67 67 66 66 66 65 65 70 46 47 46 46 46 47 65 66 66 65 65 65 65 65 65 64 65
59 59 59 61 62 62 62 61 61 62 64 64 65 66 66 67 67 67 66 66 66 66 65 65 69 51 45 45 46 45 52 65 66 65 64 65 64 65 65 65 64 64
60 59 59 59 60 60 60 61 62 63 64 65 65 65 66 66 66 67 66 66 66 66 65 66 66 54 44 45 45 45 57 65 65 65 65 64 65 65 65 64 64 64
60 60 59 59 59 60 61 61 62 63 64 66 65 65 66 66 66 66 65 66 66 66 64 65 65 55 43 44 45 46 57 66 65 64 64 64 64 63 64 63 63 60
61 60 60 60 59 61 62 62 63 63 64 66 65 65 65 65 66 65 65 66 66 66 67 67 66 62 50 43 45 46 51 65 65 64 63 63 63 62 62 62 62 60